This demonstration page uses our WeatherBlox Daily Observations layout. Learn more.

36.17497, -115.13722

Hourly Observations for July 8, 2015

Temp ( °F °C ) Dew Point ( °F °C ) Humidity (%) Winds ( mph kmh ) Pressure ( in mb ) Visibility ( mi km ) Precip ( " mm )
12:53 am 00:53 Clear 88 31 48 9 25 25 WSW 7 11 29.59 1002 10 16.09344 0 0
1:53 am 01:53 Clear 86 30 48 9 27 27 SSE 5 7 29.56 1001 10 16.09344 0 0
2:53 am 02:53 Clear 82 28 50 10 32 32 NE 7 11 29.62 1003 10 16.09344 0 0
3:53 am 03:53 Mostly Clear 82 28 52 11 35 35 ESE 9 15 29.62 1003 10 16.09344 0 0
4:53 am 04:53 Clear 82 28 52 11 35 35 SE 12 19 29.65 1004 10 16.09344 0 0
5:53 am 05:53 Sunny 82 28 34 1 17 17 S 7 11 29.65 1004 10 16.09344 0 0
6:53 am 06:53 Sunny 82 28 39 4 21 21 N 5 7 29.65 1004 10 16.09344 0 0
7:53 am 07:53 Sunny 84 29 52 11 33 33 S 7 11 29.68 1005 10 16.09344 0 0
8:53 am 08:53 Partly Cloudy 90 32 50 10 26 26 E 10 17 29.62 1003 10 16.09344 0 0
9:53 am 09:53 Sunny 90 32 48 9 24 24 E 12 19 29.62 1003 10 16.09344 0 0
10:53 am 10:53 Sunny 91 33 48 9 23 23 ESE 8 13 29.59 1002 10 16.09344 0 0
11:53 am 11:53 Sunny 95 35 46 8 19 19 SSE 16 26 29.56 1001 10 16.09344 0 0
12:53 pm 12:53 Sunny 95 35 45 7 18 18 N 7 11 29.53 1000 10 16.09344 0 0
1:53 pm 13:53 Partly Cloudy 97 36 41 5 14 14 S 20 31 29.5 999 10 16.09344 0 0
2:53 pm 14:53 Sunny 100 38 36 2 10 10 SSW 21 33 29.44 997 10 16.09344 0 0
3:53 pm 15:53 Sunny 100 38 36 2 10 10 SW 18 30 29.44 997 10 16.09344 0 0
4:53 pm 16:53 Sunny 99 37 34 1 10 10 S 21 33 29.44 997 10 16.09344 0 0
5:53 pm 17:53 Sunny 99 37 34 1 10 10 SW 22 35 29.44 997 10 16.09344 0 0
6:53 pm 18:53 Sunny 97 36 34 1 11 11 WSW 12 19 29.44 997 10 16.09344 0 0
7:53 pm 19:53 Sunny 95 35 30 -1 10 10 SW 8 13 29.44 997 10 16.09344 0 0
8:53 pm 20:53 Clear 93 34 30 -1 11 11 SW 10 17 29.47 998 10 16.09344 0 0
9:53 pm 21:53 Clear 91 33 25 -4 9 9 S 12 19 29.5 999 10 16.09344 0 0
10:53 pm 22:53 Clear 90 32 30 -1 12 12 SW 9 15 29.53 1000 10 16.09344 0 0
11:53 pm 23:53 Clear 86 30 43 6 22 22 SSW 10 17 29.53 1000 10 16.09344 0 0

Powered by AerisWeather